Time,TemperatureF,DewpointF,PressureIn,WindDirection,WindDirectionDegrees,WindSpeedMPH,WindSpeedGustMPH,Humidity,HourlyPrecipIn,Conditions,Clouds,dailyrainin,SoftwareType,DateUTC
2013-05-01 00:02:00,37.0,27.0,-100.00,NW,318,20.0,-999.0,69,-99.99,,,-99.99,,2013-05-01 05:02:00,
2013-05-01 00:11:00,36.0,26.0,-100.00,NW,317,25.0,-999.0,66,-99.99,,,-99.99,,2013-05-01 05:11:00,
2013-05-01 00:21:00,36.0,26.0,-100.00,NW,316,32.0,-999.0,65,-99.99,,,-99.99,,2013-05-01 05:21:00,
2013-05-01 00:32:00,36.0,25.0,-100.00,NW,313,21.0,-999.0,63,-99.99,,,-99.99,,2013-05-01 05:32:00,
2013-05-01 00:42:00,36.0,26.0,-100.00,WNW,299,12.0,-999.0,67,-99.99,,,-99.99,,2013-05-01 05:42:00,
2013-05-01 00:52:00,36.0,26.0,-100.00,NW,322,18.0,-999.0,68,-99.99,,,-99.99,,2013-05-01 05:52:00,
2013-05-01 01:02:00,35.0,25.0,-100.00,NW,323,25.0,-999.0,65,-99.99,,,-99.99,,2013-05-01 06:02:00,
2013-05-01 01:12:00,35.0,25.0,-100.00,NW,324,27.0,-999.0,67,-99.99,,,-99.99,,2013-05-01 06:12:00,
2013-05-01 01:22:00,35.0,26.0,-100.00,NW,311,22.0,-999.0,69,-99.99,,,-99.99,,2013-05-01 06:22:00,
2013-05-01 01:32:00,35.0,26.0,-100.00,NW,325,22.0,-999.0,70,-99.99,,,-99.99,,2013-05-01 06:32:00,
2013-05-01 01:42:00,35.0,25.0,-100.00,NNW,334,23.0,-999.0,68,-99.99,,,-99.99,,2013-05-01 06:42:00,
2013-05-01 01:51:00,34.0,25.0,-100.00,NNW,332,26.0,-999.0,69,-99.99,,,-99.99,,2013-05-01 06:51:00,
2013-05-01 02:01:00,34.0,25.0,-100.00,NNW,335,26.0,-999.0,68,-99.99,,,-99.99,,2013-05-01 07:01:00,
2013-05-01 02:11:00,34.0,24.0,-100.00,NNW,332,24.0,-999.0,68,-99.99,,,-99.99,,2013-05-01 07:11:00,
2013-05-01 02:21:00,33.0,24.0,-100.00,NW,319,22.0,-999.0,67,-99.99,,,-99.99,,2013-05-01 07:21:00,
2013-05-01 02:32:00,33.0,23.0,-100.00,NW,316,25.0,-999.0,67,-99.99,,,-99.99,,2013-05-01 07:32:00,
2013-05-01 02:42:00,33.0,23.0,-100.00,NW,324,31.0,-999.0,67,-99.99,,,-99.99,,2013-05-01 07:42:00,
2013-05-01 02:52:00,33.0,23.0,-100.00,NW,321,25.0,-999.0,68,-99.99,,,-99.99,,2013-05-01 07:52:00,
2013-05-01 03:02:00,33.0,22.0,-100.00,NNW,328,23.0,-999.0,66,-99.99,,,-99.99,,2013-05-01 08:02:00,
2013-05-01 03:11:00,32.0,22.0,-100.00,NW,326,27.0,-999.0,66,-99.99,,,-99.99,,2013-05-01 08:11:00,
2013-05-01 03:22:00,32.0,22.0,-100.00,NNW,334,24.0,-999.0,65,-99.99,,,-99.99,,2013-05-01 08:22:00,
2013-05-01 03:32:00,32.0,21.0,-100.00,NW,325,24.0,-999.0,65,-99.99,,,-99.99,,2013-05-01 08:32:00,
2013-05-01 03:42:00,32.0,21.0,-100.00,NW,323,22.0,-999.0,64,-99.99,,,-99.99,,2013-05-01 08:42:00,
2013-05-01 03:53:00,32.0,22.0,-100.00,NNW,331,20.0,-999.0,67,-99.99,,,-99.99,,2013-05-01 08:53:00,
2013-05-01 04:01:00,31.0,22.0,-100.00,NNW,330,20.0,-999.0,67,-99.99,,,-99.99,,2013-05-01 09:01:00,
2013-05-01 04:12:00,31.0,22.0,-100.00,NNW,328,17.0,-999.0,69,-99.99,,,-99.99,,2013-05-01 09:12:00,
2013-05-01 04:21:00,31.0,22.0,-100.00,NNW,332,17.0,-999.0,69,-99.99,,,-99.99,,2013-05-01 09:21:00,
2013-05-01 04:33:00,31.0,22.0,-100.00,NNW,339,14.0,-999.0,70,-99.99,,,-99.99,,2013-05-01 09:33:00,
2013-05-01 04:42:00,31.0,22.0,-100.00,NNW,329,16.0,-999.0,69,-99.99,,,-99.99,,2013-05-01 09:42:00,
2013-05-01 04:52:00,31.0,22.0,-100.00,NNW,330,18.0,-999.0,70,-99.99,,,-99.99,,2013-05-01 09:52:00,
2013-05-01 05:02:00,31.0,23.0,-100.00,NNW,332,13.0,-999.0,72,-99.99,,,-99.99,,2013-05-01 10:02:00,
2013-05-01 05:12:00,31.0,22.0,-100.00,NNW,329,17.0,-999.0,71,-99.99,,,-99.99,,2013-05-01 10:12:00,
2013-05-01 05:22:00,30.0,21.0,-100.00,NNW,335,16.0,-999.0,67,-99.99,,,-99.99,,2013-05-01 10:22:00,
2013-05-01 05:33:00,30.0,20.0,-100.00,NNW,339,18.0,-999.0,66,-99.99,,,-99.99,,2013-05-01 10:33:00,
2013-05-01 05:42:00,30.0,20.0,-100.00,NNW,337,17.0,-999.0,66,-99.99,,,-99.99,,2013-05-01 10:42:00,
2013-05-01 05:52:00,30.0,20.0,-100.00,NW,324,21.0,-999.0,66,-99.99,,,-99.99,,2013-05-01 10:52:00,
2013-05-01 06:02:00,30.0,21.0,-100.00,NW,320,13.0,-999.0,69,-99.99,,,-99.99,,2013-05-01 11:02:00,
2013-05-01 06:11:00,30.0,20.0,-100.00,WNW,301,10.0,-999.0,68,-99.99,,,-99.99,,2013-05-01 11:11:00,
2013-05-01 06:22:00,30.0,20.0,-100.00,WNW,303,15.0,-999.0,67,-99.99,,,-99.99,,2013-05-01 11:22:00,
2013-05-01 06:32:00,30.0,19.0,-100.00,NW,322,14.0,-999.0,65,-99.99,,,-99.99,,2013-05-01 11:32:00,
2013-05-01 06:42:00,30.0,20.0,-100.00,NNW,332,16.0,-999.0,66,-99.99,,,-99.99,,2013-05-01 11:42:00,
2013-05-01 06:51:00,30.0,20.0,-100.00,WNW,301,15.0,-999.0,68,-99.99,,,-99.99,,2013-05-01 11:51:00,
2013-05-01 07:01:00,30.0,20.0,-100.00,NW,318,11.0,-999.0,68,-99.99,,,-99.99,,2013-05-01 12:01:00,
2013-05-01 07:11:00,30.0,21.0,-100.00,WNW,291,15.0,-999.0,69,-99.99,,,-99.99,,2013-05-01 12:11:00,
2013-05-01 07:21:00,30.0,20.0,-100.00,NW,315,15.0,-999.0,66,-99.99,,,-99.99,,2013-05-01 12:21:00,
2013-05-01 07:32:00,30.0,20.0,-100.00,NW,325,17.0,-999.0,66,-99.99,,,-99.99,,2013-05-01 12:32:00,
2013-05-01 07:41:00,30.0,20.0,-100.00,NW,325,17.0,-999.0,66,-99.99,,,-99.99,,2013-05-01 12:41:00,
2013-05-01 07:52:00,30.0,21.0,-100.00,NW,323,17.0,-999.0,68,-99.99,,,-99.99,,2013-05-01 12:52:00,
2013-05-01 08:01:00,30.0,21.0,-100.00,NW,323,14.0,-999.0,68,-99.99,,,-99.99,,2013-05-01 13:01:00,
2013-05-01 08:11:00,30.0,21.0,-100.00,NW,319,15.0,-999.0,69,-99.99,,,-99.99,,2013-05-01 13:11:00,
2013-05-01 08:21:00,30.0,21.0,-100.00,NNW,327,15.0,-999.0,69,-99.99,,,-99.99,,2013-05-01 13:21:00,
2013-05-01 08:32:00,30.0,22.0,-100.00,NW,326,9.0,-999.0,70,-99.99,,,-99.99,,2013-05-01 13:32:00,
2013-05-01 08:42:00,30.0,21.0,-100.00,NW,321,16.0,-999.0,68,-99.99,,,-99.99,,2013-05-01 13:42:00,
2013-05-01 08:52:00,30.0,22.0,-100.00,NW,312,14.0,-999.0,70,-99.99,,,-99.99,,2013-05-01 13:52:00,
2013-05-01 09:02:00,30.0,21.0,-100.00,NNW,329,20.0,-999.0,69,-99.99,,,-99.99,,2013-05-01 14:02:00,
2013-05-01 09:11:00,30.0,21.0,-100.00,NW,326,28.0,-999.0,69,-99.99,,,-99.99,,2013-05-01 14:11:00,
2013-05-01 09:21:00,30.0,20.0,-100.00,NNW,336,26.0,-999.0,67,-99.99,,,-99.99,,2013-05-01 14:21:00,
2013-05-01 09:32:00,29.0,17.0,-100.00,NNW,338,20.0,-999.0,60,-99.99,,,-99.99,,2013-05-01 14:32:00,
2013-05-01 09:42:00,30.0,19.0,-100.00,NNW,335,20.0,-999.0,63,-99.99,,,-99.99,,2013-05-01 14:42:00,
2013-05-01 09:51:00,29.0,17.0,-100.00,NNW,343,25.0,-999.0,59,-99.99,,,-99.99,,2013-05-01 14:51:00,
2013-05-01 10:01:00,30.0,18.0,-100.00,NNW,339,17.0,-999.0,61,-99.99,,,-99.99,,2013-05-01 15:01:00,
2013-05-01 10:11:00,30.0,18.0,-100.00,NNW,331,25.0,-999.0,60,-99.99,,,-99.99,,2013-05-01 15:11:00,
2013-05-01 10:21:00,30.0,19.0,-100.00,NNW,327,23.0,-999.0,62,-99.99,,,-99.99,,2013-05-01 15:21:00,
2013-05-01 10:33:00,31.0,19.0,-100.00,NNW,334,18.0,-999.0,62,-99.99,,,-99.99,,2013-05-01 15:33:00,
2013-05-01 10:43:00,30.0,19.0,-100.00,NNW,331,22.0,-999.0,62,-99.99,,,-99.99,,2013-05-01 15:43:00,
2013-05-01 10:53:00,30.0,19.0,-100.00,NNW,329,17.0,-999.0,62,-99.99,,,-99.99,,2013-05-01 15:53:00,
2013-05-01 11:03:00,31.0,20.0,-100.00,NNW,330,22.0,-999.0,63,-99.99,,,-99.99,,2013-05-01 16:03:00,
2013-05-01 11:12:00,31.0,19.0,-100.00,NNW,343,21.0,-999.0,61,-99.99,,,-99.99,,2013-05-01 16:12:00,
2013-05-01 11:22:00,31.0,19.0,-100.00,NNW,341,20.0,-999.0,61,-99.99,,,-99.99,,2013-05-01 16:22:00,
2013-05-01 11:32:00,32.0,21.0,-100.00,NW,326,14.0,-999.0,63,-99.99,,,-99.99,,2013-05-01 16:32:00,
2013-05-01 11:42:00,32.0,20.0,-100.00,NNW,344,18.0,-999.0,61,-99.99,,,-99.99,,2013-05-01 16:42:00,
2013-05-01 11:53:00,32.0,20.0,-100.00,NNW,344,19.0,-999.0,62,-99.99,,,-99.99,,2013-05-01 16:53:00,
2013-05-01 12:02:00,32.0,20.0,-100.00,NNW,335,21.0,-999.0,60,-99.99,,,-99.99,,2013-05-01 17:02:00,
2013-05-01 12:12:00,33.0,21.0,-100.00,NNW,343,16.0,-999.0,61,-99.99,,,-99.99,,2013-05-01 17:12:00,
2013-05-01 12:22:00,33.0,21.0,-100.00,NNW,345,15.0,-999.0,62,-99.99,,,-99.99,,2013-05-01 17:22:00,
2013-05-01 12:32:00,33.0,20.0,-100.00,NNW,334,18.0,-999.0,59,-99.99,,,-99.99,,2013-05-01 17:32:00,
2013-05-01 12:42:00,34.0,22.0,-100.00,NNW,343,19.0,-999.0,61,-99.99,,,-99.99,,2013-05-01 17:42:00,
2013-05-01 12:52:00,33.0,20.0,-100.00,NNW,339,21.0,-999.0,59,-99.99,,,-99.99,,2013-05-01 17:52:00,
2013-05-01 13:01:00,34.0,23.0,-100.00,NNW,333,17.0,-999.0,63,-99.99,,,-99.99,,2013-05-01 18:01:00,
2013-05-01 13:11:00,35.0,23.0,-100.00,West,259,17.0,-999.0,63,-99.99,,,-99.99,,2013-05-01 18:11:00,
2013-05-01 13:22:00,34.0,21.0,-100.00,NNW,334,14.0,-999.0,58,-99.99,,,-99.99,,2013-05-01 18:22:00,
2013-05-01 13:32:00,34.0,20.0,-100.00,NNW,344,16.0,-999.0,56,-99.99,,,-99.99,,2013-05-01 18:32:00,
2013-05-01 13:42:00,34.0,20.0,-100.00,NNW,344,16.0,-999.0,56,-99.99,,,-99.99,,2013-05-01 18:42:00,
2013-05-01 13:52:00,35.0,23.0,-100.00,NNW,332,19.0,-999.0,60,-99.99,,,-99.99,,2013-05-01 18:52:00,
2013-05-01 14:02:00,36.0,23.0,-100.00,NNW,334,13.0,-999.0,57,-99.99,,,-99.99,,2013-05-01 19:02:00,
2013-05-01 14:11:00,36.0,21.0,-100.00,NNW,340,18.0,-999.0,55,-99.99,,,-99.99,,2013-05-01 19:11:00,
2013-05-01 14:22:00,36.0,23.0,-100.00,West,259,17.0,-999.0,57,-99.99,,,-99.99,,2013-05-01 19:22:00,
2013-05-01 14:32:00,37.0,21.0,-100.00,NNW,340,7.0,-999.0,53,-99.99,,,-99.99,,2013-05-01 19:32:00,
2013-05-01 14:43:00,38.0,23.0,-100.00,NNW,345,19.0,-999.0,55,-99.99,,,-99.99,,2013-05-01 19:43:00,
2013-05-01 14:52:00,38.0,23.0,-100.00,NNW,345,22.0,-999.0,54,-99.99,,,-99.99,,2013-05-01 19:52:00,
2013-05-01 15:02:00,40.0,24.0,-100.00,NNW,339,18.0,-999.0,53,-99.99,,,-99.99,,2013-05-01 20:02:00,
2013-05-01 15:11:00,38.0,24.0,-100.00,NNW,344,16.0,-999.0,55,-99.99,,,-99.99,,2013-05-01 20:11:00,
2013-05-01 15:21:00,39.0,24.0,-100.00,NNW,337,23.0,-999.0,53,-99.99,,,-99.99,,2013-05-01 20:21:00,
2013-05-01 15:32:00,40.0,23.0,-100.00,NNW,345,22.0,-999.0,51,-99.99,,,-99.99,,2013-05-01 20:32:00,
2013-05-01 15:42:00,40.0,25.0,-100.00,NNW,344,19.0,-999.0,54,-99.99,,,-99.99,,2013-05-01 20:42:00,
2013-05-01 15:52:00,41.0,24.0,-100.00,NNW,341,20.0,-999.0,51,-99.99,,,-99.99,,2013-05-01 20:52:00,
2013-05-01 16:01:00,41.0,25.0,-100.00,North,2,18.0,-999.0,52,-99.99,,,-99.99,,2013-05-01 21:01:00,
2013-05-01 16:11:00,41.0,24.0,-100.00,NNW,338,16.0,-999.0,50,-99.99,,,-99.99,,2013-05-01 21:11:00,
2013-05-01 16:22:00,41.0,24.0,-100.00,NNW,338,11.0,-999.0,50,-99.99,,,-99.99,,2013-05-01 21:22:00,
2013-05-01 16:32:00,42.0,27.0,-100.00,NNW,345,26.0,-999.0,53,-99.99,,,-99.99,,2013-05-01 21:32:00,
2013-05-01 16:43:00,41.0,24.0,-100.00,WSW,258,17.0,-999.0,51,-99.99,,,-99.99,,2013-05-01 21:43:00,
2013-05-01 16:53:00,41.0,23.0,-100.00,NNW,338,20.0,-999.0,50,-99.99,,,-99.99,,2013-05-01 21:53:00,
2013-05-01 17:03:00,41.0,24.0,-100.00,NNW,345,18.0,-999.0,50,-99.99,,,-99.99,,2013-05-01 22:03:00,
2013-05-01 17:12:00,41.0,27.0,-100.00,NNW,345,21.0,-999.0,56,-99.99,,,-99.99,,2013-05-01 22:12:00,
2013-05-01 17:23:00,41.0,25.0,-100.00,East,90,14.0,-999.0,53,-99.99,,,-99.99,,2013-05-01 22:23:00,
2013-05-01 17:33:00,41.0,25.0,-100.00,WSW,258,19.0,-999.0,53,-99.99,,,-99.99,,2013-05-01 22:33:00,
2013-05-01 17:42:00,40.0,26.0,-100.00,North,10,18.0,-999.0,56,-99.99,,,-99.99,,2013-05-01 22:42:00,
2013-05-01 17:52:00,40.0,26.0,-100.00,North,3,20.0,-999.0,56,-99.99,,,-99.99,,2013-05-01 22:52:00,
2013-05-01 18:02:00,40.0,27.0,-100.00,North,6,13.0,-999.0,58,-99.99,,,-99.99,,2013-05-01 23:02:00,
2013-05-01 18:12:00,40.0,26.0,-100.00,NNE,30,22.0,-999.0,57,-99.99,,,-99.99,,2013-05-01 23:12:00,
2013-05-01 18:21:00,40.0,27.0,-100.00,North,1,22.0,-999.0,59,-99.99,,,-99.99,,2013-05-01 23:21:00,
2013-05-01 18:32:00,40.0,28.0,-100.00,East,88,18.0,-999.0,61,-99.99,,,-99.99,,2013-05-01 23:32:00,
2013-05-01 18:42:00,40.0,28.0,-100.00,North,10,20.0,-999.0,61,-99.99,,,-99.99,,2013-05-01 23:42:00,
2013-05-01 18:52:00,40.0,28.0,-100.00,North,6,21.0,-999.0,61,-99.99,,,-99.99,,2013-05-01 23:52:00,
2013-05-01 19:01:00,40.0,28.0,-100.00,North,11,23.0,-999.0,61,-99.99,,,-99.99,,2013-05-02 00:01:00,
2013-05-01 19:11:00,39.0,27.0,-100.00,NE,55,25.0,-999.0,61,-99.99,,,-99.99,,2013-05-02 00:11:00,
2013-05-01 19:21:00,39.0,28.0,-100.00,North,9,24.0,-999.0,63,-99.99,,,-99.99,,2013-05-02 00:21:00,
2013-05-01 19:32:00,39.0,27.0,-100.00,East,84,27.0,-999.0,62,-99.99,,,-99.99,,2013-05-02 00:32:00,
2013-05-01 19:42:00,39.0,27.0,-100.00,East,84,27.0,-999.0,62,-99.99,,,-99.99,,2013-05-02 00:42:00,
2013-05-01 19:52:00,38.0,28.0,-100.00,North,6,13.0,-999.0,65,-99.99,,,-99.99,,2013-05-02 00:52:00,
2013-05-01 20:01:00,38.0,27.0,-100.00,North,5,19.0,-999.0,64,-99.99,,,-99.99,,2013-05-02 01:01:00,
2013-05-01 20:11:00,38.0,27.0,-100.00,North,6,22.0,-999.0,65,-99.99,,,-99.99,,2013-05-02 01:11:00,
2013-05-01 20:21:00,37.0,27.0,-100.00,North,7,16.0,-999.0,65,-99.99,,,-99.99,,2013-05-02 01:21:00,
2013-05-01 20:32:00,37.0,27.0,-100.00,North,11,22.0,-999.0,66,-99.99,,,-99.99,,2013-05-02 01:32:00,
2013-05-01 20:42:00,37.0,27.0,-100.00,North,9,21.0,-999.0,66,-99.99,,,-99.99,,2013-05-02 01:42:00,
2013-05-01 20:52:00,37.0,27.0,-100.00,North,6,17.0,-999.0,66,-99.99,,,-99.99,,2013-05-02 01:52:00,
2013-05-01 21:02:00,37.0,27.0,-100.00,NNE,13,14.0,-999.0,68,-99.99,,,-99.99,,2013-05-02 02:02:00,
2013-05-01 21:12:00,36.0,27.0,-100.00,NNE,18,17.0,-999.0,69,-99.99,,,-99.99,,2013-05-02 02:12:00,
2013-05-01 21:21:00,36.0,27.0,-100.00,North,8,17.0,-999.0,69,-99.99,,,-99.99,,2013-05-02 02:21:00,
2013-05-01 21:32:00,35.0,27.0,-100.00,North,4,13.0,-999.0,71,-99.99,,,-99.99,,2013-05-02 02:32:00,
2013-05-01 21:42:00,35.0,27.0,-100.00,North,4,13.0,-999.0,71,-99.99,,,-99.99,,2013-05-02 02:42:00,
2013-05-01 21:51:00,35.0,27.0,-100.00,North,4,13.0,-999.0,71,-99.99,,,-99.99,,2013-05-02 02:51:00,
2013-05-01 22:01:00,34.0,27.0,-100.00,North,10,11.0,-999.0,74,-99.99,,,-99.99,,2013-05-02 03:01:00,
2013-05-01 22:11:00,33.0,27.0,-100.00,North,9,11.0,-999.0,76,-99.99,,,-99.99,,2013-05-02 03:11:00,
2013-05-01 22:22:00,33.0,26.0,-100.00,NNE,13,11.0,-999.0,76,-99.99,,,-99.99,,2013-05-02 03:22:00,
2013-05-01 22:33:00,33.0,26.0,-100.00,NNE,16,9.0,-999.0,78,-99.99,,,-99.99,,2013-05-02 03:33:00,
2013-05-01 22:43:00,32.0,26.0,-100.00,North,11,8.0,-999.0,78,-99.99,,,-99.99,,2013-05-02 03:43:00,
2013-05-01 22:53:00,32.0,26.0,-100.00,NNE,12,10.0,-999.0,79,-99.99,,,-99.99,,2013-05-02 03:53:00,
2013-05-01 23:03:00,32.0,26.0,-100.00,NNE,12,9.0,-999.0,78,-99.99,,,-99.99,,2013-05-02 04:03:00,
2013-05-01 23:12:00,32.0,26.0,-100.00,NNE,20,9.0,-999.0,76,-99.99,,,-99.99,,2013-05-02 04:12:00,
2013-05-01 23:23:00,32.0,26.0,-100.00,North,10,11.0,-999.0,78,-99.99,,,-99.99,,2013-05-02 04:23:00,
2013-05-01 23:33:00,31.0,25.0,-100.00,NNE,13,9.0,-999.0,78,-99.99,,,-99.99,,2013-05-02 04:33:00,
2013-05-01 23:42:00,32.0,26.0,-100.00,North,10,10.0,-999.0,80,-99.99,,,-99.99,,2013-05-02 04:42:00,
2013-05-01 23:52:00,32.0,26.0,-100.00,NNE,12,9.0,-999.0,79,-99.99,,,-99.99,,2013-05-02 04:52:00,